Location: Baix
(44.7118°N, 4.7648°E)
Time: 19:18:10
(UTC+00:00)

Cosmos 2322 Rocket - Pass Details

Date: 07 August 2020
Orbit: 831 x 852 km, 71.0° (Epoch: 24 September)

Event Time Altitude Azimuth Distance (km) Brightness Sun altitude
Rises 00:11:26 0° 320° (NW) 3,418 5.9 -28.7°
Reaches altitude 10° 00:14:37 10° 302° (WNW) 2,481 4.9 -28.6°
Enters shadow 00:17:08 17° 277° (W) 2,025 4.1 -28.6°
